Regional Weather Roundup
Issued by NWS

Home | Current Version | Previous Version | Graphics & Text | Print | Product List | Glossary Off
Versions: 1 2 3 4 5 6 7 8 9 10 11 12 13 14 15 16 17 18 19 20 21 22 23 24 25 26 27 28 29 30 31 32 33 34 35 36 37 38 39 40 41 42 43 44 45 46 47 48 49 50

532
ASUS43 KDTX 291201
RWRMI
MICHIGAN HOURLY REGIONAL WEATHER ROUNDUP
NATIONAL WEATHER SERVICE DETROIT/PONTIAC MI
800 AM EDT MON AUG 29 2016

NOTE: "FAIR" INDICATES FEW OR NO CLOUDS BELOW 12,000 FEET WITH NO
SIGNIFICANT WEATHER AND/OR OBSTRUCTION TO VISIBILITY.

MIZ047>049-052>055-059>063-066>070-074>076-081>083-291300-
SOUTHEAST LOWER MICHIGAN

CITY           SKY/WX    TMP DP  RH WIND       PRES   REMARKS
ADRIAN         SUNNY     69  68  96 NE5       30.27R
6HR MIN TEMP:  67; 6HR MAX TEMP:  70;

ALMA           FOG       66  66 100 E7        30.29R VSB 1/4
ANN ARBOR      SUNNY     68  66  93 NE6       30.27R
CARO           FOG       63  63  98 CALM      30.29R VSB 1/4
DETROIT CITY   SUNNY     68  67  96 NE3       30.28R
6HR MIN TEMP:  66; 6HR MAX TEMP:  71;

DETROIT        MOSUNNY   69  67  93 NE7       30.28R FOG
6HR MIN TEMP:  67; 6HR MAX TEMP:  72;

FLINT          FOG       68  65  90 E5        30.29S VSB 1/2
6HR MIN TEMP:  63; 6HR MAX TEMP:  68;

GROSSE ILE     SUNNY     69  67  93 NE7       30.26S
6HR MIN TEMP:  68; 6HR MAX TEMP:  71;

HILLSDALE      CLEAR     67  65  94 E3        30.27R FOG
6HR MIN TEMP:  51; 6HR MAX TEMP:  84;

HOWELL         FOG       62  61  99 CALM      30.28S VSB<1/4
6HR MIN TEMP:  60; 6HR MAX TEMP:  65;


CITY           SKY/WX    TMP DP  RH WIND       PRES   REMARKS
JACKSON        SUNNY     66  66 100 E3        30.28R
6HR MIN TEMP:  64; 6HR MAX TEMP:  68;

LAMBERTVILLE   SUNNY     70  68  93 NE3       30.26R
6HR MIN TEMP:  69; 6HR MAX TEMP:  71;

LANSING        CLEAR     64  62  93 CALM      30.28R
6HR MIN TEMP:  61; 6HR MAX TEMP:  67;

LAPEER         FAIR      65  64  98 CALM      30.30R FOG
6HR MIN TEMP:  62; 6HR MAX TEMP:  66;

MASON          PTSUNNY   62  61  97 CALM      30.28R FOG
MONROE         SUNNY     69  69 100 NE3       30.26R
6HR MIN TEMP:  67; 6HR MAX TEMP:  69;

MT. CLEMENS    MOSUNNY   65  65 100 VRB1      30.26S
6HR MIN TEMP:  63; 6HR MAX TEMP:  68;

PONTIAC        PTSUNNY   67  65  93 E3        30.28R FOG
6HR MIN TEMP:  63; 6HR MAX TEMP:  68;

PORT HURON     SUNNY     61  61 100 NW3       30.28S FOG
TRI CITIES     FOG       66  66 100 SE5       30.30R VSB<1/4
6HR MIN TEMP:  65; 6HR MAX TEMP:  68;

MIDLAND        FOG       66  66 100 CALM      30.29R VSB 1/4
6HR MIN TEMP:  64; 6HR MAX TEMP:  68;

TROY           MOSUNNY   68  66  91 NE5       30.30S
SAGINAW HB     FOG       64  63  94 SE3       30.29S VSB<1/4
$$
MIZ043>046-050>051-056>058-064>065-071>073-077>080-291300-
SOUTHWEST LOWER MICHIGAN

CITY           SKY/WX    TMP DP  RH WIND       PRES   REMARKS
BATTLE CREEK   MOCLDY    67  67 100 E5        30.27R
6HR MIN TEMP:  64; 6HR MAX TEMP:  68;

BENTON HARBOR  CLEAR     68  65  90 CALM      30.24R FOG
6HR MIN TEMP:  65; 6HR MAX TEMP:  68;

BIG RAPIDS     FOG       63  62  97 CALM      30.28S VSB 1/2
6HR MIN TEMP:  59; 6HR MAX TEMP:  63;

COLDWATER      PTCLDY    69  69 100 CALM      30.27R FOG
6HR MIN TEMP:  67; 6HR MAX TEMP:  70;

FREMONT        FAIR      64  63  96 E7        30.26R
HOLLAND        CLEAR     66  65  96 E5        30.26R
6HR MIN TEMP:  63; 6HR MAX TEMP:  67;

GRAND RAPIDS   PTCLDY    65  63  93 E3        30.27R
6HR MIN TEMP:  64; 6HR MAX TEMP:  68;

IONIA          FAIR      63  62  98 CALM      30.27R FOG
6HR MIN TEMP:  59; 6HR MAX TEMP:  65;

KALAMAZOO      CLEAR     68  65  90 CALM      30.26R
6HR MIN TEMP:  65; 6HR MAX TEMP:  69;

LUDINGTON      CLEAR     58  58 100 CALM      30.26S
6HR MIN TEMP:  55; 6HR MAX TEMP:  58;

MARSHALL       CLEAR     64  64 100 CALM      30.26S
MOUNT PLEASANT FOG       66  65  97 E3        30.29R VSB<1/4
6HR MIN TEMP:  61; 6HR MAX TEMP:  66;

MUSKEGON       PTCLDY    65  63  93 E3        30.26R
6HR MIN TEMP:  63; 6HR MAX TEMP:  66;

SOUTH HAVEN    CLEAR     69  68  98 E3        30.24S
$$
MIZ016>042-291300-
NORTHERN LOWER MICHIGAN

CITY           SKY/WX    TMP DP  RH WIND       PRES   REMARKS
ALPENA         MOSUNNY   57  54  89 CALM      30.30S
6HR MIN TEMP:  49; 6HR MAX TEMP:  57;

BEAVER ISLAND  PTCLDY    61  61 100 CALM      30.28S
6HR MIN TEMP:  56; 6HR MAX TEMP:  61;

BELLAIRE       PTCLDY    55  53  95 CALM      30.29S FOG
6HR MIN TEMP:  52; 6HR MAX TEMP:  56;

CADILLAC       CLEAR     59  58  96 CALM      30.29S
CHARLEVOIX     CLOUDY    61  61 100 SE3       30.31S FOG
6HR MIN TEMP:  60; 6HR MAX TEMP:  62;

FRANKFORT      CLOUDY    57  55  92 CALM      30.26S
GAYLORD        FOG       59  56  89 S3        30.31S VSB 1/4
6HR MIN TEMP:  57; 6HR MAX TEMP:  61;

GRAYLING       FOG       53  52  99 CALM      30.31S VSB<1/4
HARBOR SPRINGS FOG       59  59  99 CALM      30.29R VSB 1/2
HOUGHTON LAKE  CLEAR     55  54  96 E3        30.31S
6HR MIN TEMP:  51; 6HR MAX TEMP:  57;

MANISTEE       PTCLDY    60  59  96 E5        30.26S
OSCODA         SUNNY     57  57 100 CALM      30.29R
6HR MIN TEMP:  53; 6HR MAX TEMP:  60;

PELLSTON       FOG       57  56  96 CALM      30.29S VSB 1/4
6HR MIN TEMP:  51; 6HR MAX TEMP:  57;

ROGERS CITY    CLOUDY    57  55  94 CALM      30.31R
TRAVERSE CITY  CLOUDY    60  58  92 CALM      30.27S
6HR MIN TEMP:  56; 6HR MAX TEMP:  62;

$$
MIZ007>008-015-291300-
EASTERN UPPER MICHIGAN

CITY           SKY/WX    TMP DP  RH WIND       PRES   REMARKS
KINROSS        MOSUNNY   56  55  97 E5        30.29S
6HR MIN TEMP:  53; 6HR MAX TEMP:  56; 6HR PCP:  0.01;

MACKINAC ISLAN CLOUDY    60  60 100 E5        30.28S
6HR MIN TEMP:  55; 6HR MAX TEMP:  60;

NEWBERRY       CLOUDY    54  53  97 CALM      30.28S
6HR MIN TEMP:  50; 6HR MAX TEMP:  56;

S. S. MARIE    CLOUDY    55  55 100 CALM      30.29R
6HR MIN TEMP:  53; 6HR MAX TEMP:  58;

$$
MIZ004>006-011>014-085-291300-
CENTRAL UPPER MICHIGAN

CITY           SKY/WX    TMP DP  RH WIND       PRES   REMARKS
MANISTIQUE     PTCLDY    56  54  92 CALM      30.27R FOG
6HR MIN TEMP:  53; 6HR MAX TEMP:  58;

ESCANABA       FOG       58  58 100 NW3       30.26S VSB 1/4
6HR MIN TEMP:  55; 6HR MAX TEMP:  58;

MENOMINEE      MOCLDY   N/A N/A N/A CALM      30.27S
SAWYER-GWINN   FOG       59  57  94 S7        30.26S VSB 0
$$
MIZ001>003-009>011-084-291300-
WESTERN UPPER MICHIGAN

CITY           SKY/WX    TMP DP  RH WIND       PRES   REMARKS
IRON MOUNTAIN  FOG       61  59  93 SE6       30.25R VSB 1
6HR MIN TEMP:  57; 6HR MAX TEMP:  62;

HOUGHTON       CLOUDY    62  59  90 SE5       30.19S
6HR MIN TEMP:  60; 6HR MAX TEMP:  62;

IRONWOOD       LGT RAIN  65  63  93 W7        30.23R
6HR MIN TEMP:  63; 6HR MAX TEMP:  68; 6HR PCP:  0.02;

$$

ABBREVIATIONS USED IN REMARKS
   TC - TEMPERATURE IN CELSIUS
  WCI - WIND CHILL INDEX
   HX - HEAT INDEX
  VSB - VISIBILITY





USA.gov is the U.S. government's official web portal to all federal, state and local government web resources and services.